Location: Indian Tree Observatory
(39.4030°N, 104.5929°W)
Time: 17:34:27
(UTC-06:00)

OTV 5 (USA 277) - Visible Passes

Search period start: 20 October 2019 00:00
Search period end: 30 October 2019 00:00
Orbit: 310 x 324 km, 54.5° (Epoch: 17 October)

Date Brightness Start Highest point End Pass type
(mag) Time Alt. Az. Time Alt. Az. Time Alt. Az.
20 Oct ? 05:08:43 18° ENE 05:08:43 18° ENE 05:09:53 10° E visible
20 Oct ? 06:39:41 10° WNW 06:41:54 22° SW 06:44:06 10° S visible
21 Oct ? 05:23:30 28° ESE 05:23:30 28° ESE 05:24:59 10° ESE visible
22 Oct ? 05:38:26 18° SSE 05:38:26 18° SSE 05:39:22 10° SSE visible
26 Oct ? 19:42:57 10° SSW 19:43:54 19° SSW 19:43:54 19° SSW visible
27 Oct ? 19:57:22 10° WSW 19:58:37 23° WSW 19:58:37 23° WSW visible
28 Oct ? 18:38:12 10° S 18:40:26 23° SE 18:42:19 12° ENE visible
28 Oct ? 20:12:30 10° W 20:13:13 15° WNW 20:13:13 15° WNW visible
29 Oct ? 18:52:10 10° SW 18:54:52 78° SE 18:56:47 17° NE visible
